Regional Weather Roundup
Issued by NWS Kansas City/Pleasant Hill, MO

Home | Current Version | Previous Version | Graphics & Text | Print | Product List | Glossary Off
Versions: 1 2 3 4 5 6 7 8 9 10 11 12 13 14 15 16 17 18 19 20 21 22 23 24 25 26 27 28 29 30 31 32 33 34 35 36 37 38 39 40 41 42 43 44 45 46 47 48 49

000
ASUS43 KEAX 072010
RWREAX

WEATHER ROUNDUP FOR EASTERN KANSAS AND NORTHWEST MISSOURI
NATIONAL WEATHER SERVICE KANSAS CITY/PLEASANT HILL MO
300 PM CDT TUE JUL 07 2015

KSZ040-057-103>105-MOZ028-029-037-043-072100-
...KANSAS CITY METROPOLITAN AREA...

CITY           SKY/WX    TMP DP  RH WIND       PRES   REMARKS
K.C. INTL      CLOUDY    71  59  65 NE15      30.06F
K.C. DOWNTOWN  PTSUNNY   75  60  59 NE15      30.04F
LEES SUMMIT    NOT AVBL
OLATHE - IXD   PTSUNNY   72  60  66 N10       30.06F HAZE
OLATHE - OJC   PTSUNNY   73  59  61 NE13      30.04F HAZE
LAWRENCE       CLOUDY    71  58  63 N10       30.07S

$$

MOZ001>008-011>017-020>025-030>033-038>040-044>046-053-054-072100-
...NORTHERN AND CENTRAL MISSOURI...

CITY           SKY/WX    TMP DP  RH WIND       PRES   REMARKS
ST. JOSEPH     PTSUNNY   73  57  57 NE10      30.07F
MOSBY          MOCLDY    73  59  60 N12       30.05F
WARRENSBURG    CLOUDY    70  61  73 N8        30.04S HAZE
WHITEMAN AFB   CLOUDY    70  61  73 NE8       30.02F HAZE
CLINTON        DRIZZLE   66  64  94 N10       30.04S
SEDALIA        CLOUDY    71  62  73 NE9       30.05R HAZE
WARSAW         NOT AVBL
CHILLICOTHE      N/A     74  60  61 N6        30.07S
KIRKSVILLE     PTSUNNY   73  58  59 N13       30.06S HAZE

$$

MOZ041-047>049-056>058-063>065-088>090-097-072100-
...EASTERN AND SOUTHERN MISSOURI...

CITY           SKY/WX    TMP DP  RH WIND       PRES   REMARKS
ST. LOUIS INTL CLOUDY    70  64  81 N9        30.00S
SPIRIT OF STL  CLOUDY    69  65  86 N9        30.00R
COLUMBIA       CLOUDY    68  63  84 NE10      30.03S HAZE
JEFFERSON CITY CLOUDY    67  64  90 VRB5      30.02S FOG
ROLLA          RAIN      67  66  97 N13       30.00R FOG
OSAGE BEACH    CLOUDY    66  63  88 N6        30.02R
SPRINGFIELD    FOG       68  67  96 N8        30.01S VSB 1/2
BRANSON        LGT RAIN  72  70  94 CALM      30.03R
JOPLIN         CLOUDY    66  63  90 NE8       30.03S FOG
WEST PLAINS    LGT RAIN  72  68  87 SW10      30.03R

$$

IAZ060-094-KSZ022-034>040-054-083-096-NEZ052-066-093-072100-
...KANSAS...SOUTHEAST NEBRASKA AND IOWA...

CITY           SKY/WX    TMP DP  RH WIND       PRES   REMARKS
TOPEKA         CLOUDY    70  58  65 N12       30.08S
MANHATTAN      CLOUDY    73  51  46 NE13G21   30.09F
EMPORIA        CLOUDY    71  58  63 N13       30.07S
CHANUTE        CLOUDY    67  64  90 NE6       30.05S FOG
WICHITA        LGT RAIN  69  55  60 N16       30.07F
OMAHA          MOSUNNY   71  52  50 NE14      30.12F
LINCOLN        SUNNY     72  50  45 N13       30.13F
FALLS CITY     MOSUNNY   72  53  51 N9        30.09F
LAMONI         MOSUNNY   73  56  54 NE9       30.09S
DES MOINES     PTSUNNY   72  50  45 NE9G21    30.09F

$$




USA.gov is the U.S. government's official web portal to all federal, state and local government web resources and services.